Time,TemperatureF,DewpointF,PressureIn,WindDirection,WindDirectionDegrees,WindSpeedMPH,WindSpeedGustMPH,Humidity,HourlyPrecipIn,Conditions,Clouds,dailyrainin,SoftwareType,DateUTC
2013-08-25 00:02:00,82.9,71.7,29.94,West,278,0.0,0.0,69,0.00,CLR,,0.00,WeatherDisplay:10.37,2013-08-25 05:02:00,
2013-08-25 00:07:00,82.6,71.4,29.95,WSW,244,0.0,0.0,69,0.00,CLR,,0.00,WeatherDisplay:10.37,2013-08-25 05:07:00,
2013-08-25 00:12:00,82.5,71.3,29.95,WSW,244,0.0,0.0,69,0.00,CLR,,0.00,WeatherDisplay:10.37,2013-08-25 05:12:00,
2013-08-25 00:17:00,82.3,70.7,29.94,WSW,244,0.0,0.0,68,0.00,CLR,,0.00,WeatherDisplay:10.37,2013-08-25 05:17:00,
2013-08-25 00:22:00,82.1,70.5,29.95,SW,233,0.0,0.0,68,0.00,CLR,,0.00,WeatherDisplay:10.37,2013-08-25 05:22:00,
2013-08-25 00:27:00,82.0,70.4,29.95,West,281,0.0,0.0,68,0.00,CLR,,0.00,WeatherDisplay:10.37,2013-08-25 05:27:00,
2013-08-25 00:32:00,81.8,70.2,29.94,WNW,282,0.0,0.0,68,0.00,CLR,,0.00,WeatherDisplay:10.37,2013-08-25 05:32:00,
2013-08-25 00:37:00,81.7,70.1,29.95,WNW,282,0.0,0.0,68,0.00,CLR,,0.00,WeatherDisplay:10.37,2013-08-25 05:37:00,
2013-08-25 00:42:00,81.6,70.0,29.94,WNW,282,0.0,0.0,68,0.00,CLR,,0.00,WeatherDisplay:10.37,2013-08-25 05:42:00,
2013-08-25 00:47:00,81.5,69.9,29.94,WNW,282,0.0,0.0,68,0.00,CLR,,0.00,WeatherDisplay:10.37,2013-08-25 05:47:00,
2013-08-25 00:52:00,81.3,69.7,29.95,WNW,282,0.0,0.0,68,0.00,CLR,,0.00,WeatherDisplay:10.37,2013-08-25 05:52:00,
2013-08-25 00:57:00,81.2,69.6,29.95,WNW,282,0.0,0.0,68,0.00,CLR,,0.00,WeatherDisplay:10.37,2013-08-25 05:57:00,
2013-08-25 01:02:00,81.1,69.5,29.95,WNW,282,0.0,0.0,68,0.00,CLR,,0.00,WeatherDisplay:10.37,2013-08-25 06:02:00,
2013-08-25 01:07:00,80.9,69.3,29.95,WNW,282,0.0,0.0,68,0.00,CLR,,0.00,WeatherDisplay:10.37,2013-08-25 06:07:00,
2013-08-25 01:12:00,80.7,69.6,29.95,WNW,282,0.0,0.0,69,0.00,CLR,,0.00,WeatherDisplay:10.37,2013-08-25 06:12:00,
2013-08-25 01:17:00,80.6,69.5,29.96,WNW,282,0.0,0.0,69,0.00,CLR,,0.00,WeatherDisplay:10.37,2013-08-25 06:17:00,
2013-08-25 01:22:00,80.3,69.6,29.96,WNW,282,0.0,0.0,70,0.00,CLR,,0.00,WeatherDisplay:10.37,2013-08-25 06:22:00,
2013-08-25 01:27:00,80.2,69.5,29.96,WNW,282,0.0,0.0,70,0.00,CLR,,0.00,WeatherDisplay:10.37,2013-08-25 06:27:00,
2013-08-25 01:32:00,80.0,69.3,29.96,WNW,282,0.0,0.0,70,0.00,CLR,,0.00,WeatherDisplay:10.37,2013-08-25 06:32:00,
2013-08-25 01:37:00,79.7,69.5,29.96,WNW,282,0.0,0.0,71,0.00,CLR,,0.00,WeatherDisplay:10.37,2013-08-25 06:37:00,
2013-08-25 01:42:00,79.5,69.7,29.96,WNW,282,0.0,0.0,72,0.00,CLR,,0.00,WeatherDisplay:10.37,2013-08-25 06:42:00,
2013-08-25 01:47:00,79.3,69.1,29.96,WNW,282,0.0,0.0,71,0.00,CLR,,0.00,WeatherDisplay:10.37,2013-08-25 06:47:00,
2013-08-25 01:52:00,79.1,69.3,29.96,WNW,282,0.0,0.0,72,0.00,CLR,,0.00,WeatherDisplay:10.37,2013-08-25 06:52:00,
2013-08-25 01:57:00,79.0,69.2,29.96,WNW,282,0.0,0.0,72,0.00,CLR,,0.00,WeatherDisplay:10.37,2013-08-25 06:57:00,
2013-08-25 02:02:00,78.8,69.0,29.96,WNW,282,0.0,0.0,72,0.00,CLR,,0.00,WeatherDisplay:10.37,2013-08-25 07:02:00,
2013-08-25 02:07:00,78.7,69.3,29.96,WNW,282,0.0,0.0,73,0.00,CLR,,0.00,WeatherDisplay:10.37,2013-08-25 07:07:00,
2013-08-25 02:12:00,78.5,69.1,29.96,WNW,282,0.0,0.0,73,0.00,CLR,,0.00,WeatherDisplay:10.37,2013-08-25 07:12:00,
2013-08-25 02:17:00,78.3,69.3,29.96,WNW,282,0.0,0.0,74,0.00,CLR,,0.00,WeatherDisplay:10.37,2013-08-25 07:17:00,
2013-08-25 02:22:00,78.1,69.1,29.96,WNW,282,0.0,0.0,74,0.00,CLR,,0.00,WeatherDisplay:10.37,2013-08-25 07:22:00,
2013-08-25 02:27:00,77.9,68.9,29.96,WNW,282,0.0,0.0,74,0.00,CLR,,0.00,WeatherDisplay:10.37,2013-08-25 07:27:00,
2013-08-25 02:32:00,77.8,68.8,29.96,WNW,282,0.0,0.0,74,0.00,CLR,,0.00,WeatherDisplay:10.37,2013-08-25 07:32:00,
2013-08-25 02:37:00,77.6,69.0,29.96,WNW,282,0.0,0.0,75,0.00,CLR,,0.00,WeatherDisplay:10.37,2013-08-25 07:37:00,
2013-08-25 02:42:00,77.5,68.9,29.96,WNW,282,0.0,0.0,75,0.00,CLR,,0.00,WeatherDisplay:10.37,2013-08-25 07:42:00,
2013-08-25 02:47:00,77.3,68.8,29.96,WNW,282,0.0,0.0,75,0.00,CLR,,0.00,WeatherDisplay:10.37,2013-08-25 07:47:00,
2013-08-25 02:52:00,77.2,68.7,29.96,WNW,282,0.0,0.0,75,0.00,CLR,,0.00,WeatherDisplay:10.37,2013-08-25 07:52:00,
2013-08-25 02:57:00,77.0,68.9,29.96,WNW,282,0.0,0.0,76,0.00,CLR,,0.00,WeatherDisplay:10.37,2013-08-25 07:57:00,
2013-08-25 03:02:00,76.9,68.8,29.96,WNW,282,0.0,0.0,76,0.00,CLR,,0.00,WeatherDisplay:10.37,2013-08-25 08:02:00,
2013-08-25 03:07:00,76.7,68.6,29.96,WNW,282,0.0,0.0,76,0.00,CLR,,0.00,WeatherDisplay:10.37,2013-08-25 08:07:00,
2013-08-25 03:12:00,76.6,68.5,29.96,WNW,282,0.0,0.0,76,0.00,CLR,,0.00,WeatherDisplay:10.37,2013-08-25 08:12:00,
2013-08-25 03:17:00,76.5,68.7,29.97,WNW,282,0.0,0.0,77,0.00,CLR,,0.00,WeatherDisplay:10.37,2013-08-25 08:17:00,
2013-08-25 03:22:00,76.4,68.7,29.97,WNW,282,0.0,0.0,77,0.00,CLR,,0.00,WeatherDisplay:10.37,2013-08-25 08:22:00,
2013-08-25 03:27:00,76.4,69.4,29.97,WNW,282,0.0,0.0,79,0.00,CLR,,0.00,WeatherDisplay:10.37,2013-08-25 08:27:00,
2013-08-25 03:32:00,76.3,69.7,29.96,WNW,282,0.0,0.0,80,0.00,CLR,,0.00,WeatherDisplay:10.37,2013-08-25 08:32:00,
2013-08-25 03:37:00,76.2,69.6,29.96,WNW,282,0.0,0.0,80,0.00,CLR,,0.00,WeatherDisplay:10.37,2013-08-25 08:37:00,
2013-08-25 03:42:00,76.1,69.1,29.96,WNW,282,0.0,0.0,79,0.00,CLR,,0.00,WeatherDisplay:10.37,2013-08-25 08:42:00,
2013-08-25 03:47:00,76.0,69.4,29.96,WNW,282,0.0,0.0,80,0.00,CLR,,0.00,WeatherDisplay:10.37,2013-08-25 08:47:00,
2013-08-25 03:52:00,75.9,69.3,29.97,WNW,282,0.0,0.0,80,0.00,CLR,,0.00,WeatherDisplay:10.37,2013-08-25 08:52:00,
2013-08-25 03:57:00,75.8,69.6,29.97,WNW,282,0.0,0.0,81,0.00,CLR,,0.00,WeatherDisplay:10.37,2013-08-25 08:57:00,
2013-08-25 04:02:00,75.7,69.5,29.96,WNW,282,0.0,0.0,81,0.00,CLR,,0.00,WeatherDisplay:10.37,2013-08-25 09:02:00,
2013-08-25 04:07:00,75.6,69.7,29.96,WNW,282,0.0,0.0,82,0.00,CLR,,0.00,WeatherDisplay:10.37,2013-08-25 09:07:00,
2013-08-25 04:12:00,75.5,69.6,29.96,WNW,282,0.0,0.0,82,0.00,CLR,,0.00,WeatherDisplay:10.37,2013-08-25 09:12:00,
2013-08-25 04:17:00,75.5,69.6,29.96,WNW,282,0.0,0.0,82,0.00,CLR,,0.00,WeatherDisplay:10.37,2013-08-25 09:17:00,
2013-08-25 04:22:00,75.4,69.5,29.96,WNW,282,0.0,0.0,82,0.00,CLR,,0.00,WeatherDisplay:10.37,2013-08-25 09:22:00,
2013-08-25 04:27:00,75.3,69.4,29.96,WNW,282,0.0,0.0,82,0.00,CLR,,0.00,WeatherDisplay:10.37,2013-08-25 09:27:00,
2013-08-25 04:32:00,75.2,69.3,29.96,WNW,282,0.0,0.0,82,0.00,CLR,,0.00,WeatherDisplay:10.37,2013-08-25 09:32:00,
2013-08-25 04:37:00,75.1,69.2,29.96,WNW,282,0.0,0.0,82,0.00,CLR,,0.00,WeatherDisplay:10.37,2013-08-25 09:37:00,
2013-08-25 04:42:00,75.1,69.6,29.96,WNW,282,0.0,0.0,83,0.00,CLR,,0.00,WeatherDisplay:10.37,2013-08-25 09:42:00,
2013-08-25 04:47:00,75.0,69.5,29.96,WNW,282,0.0,0.0,83,0.00,CLR,,0.00,WeatherDisplay:10.37,2013-08-25 09:47:00,
2013-08-25 04:52:00,74.9,69.4,29.96,WNW,282,0.0,0.0,83,0.00,CLR,,0.00,WeatherDisplay:10.37,2013-08-25 09:52:00,
2013-08-25 04:57:00,74.8,69.3,29.96,WNW,282,0.0,0.0,83,0.00,CLR,,0.00,WeatherDisplay:10.37,2013-08-25 09:57:00,
2013-08-25 05:02:00,74.7,69.2,29.96,WNW,282,0.0,0.0,83,0.00,CLR,,0.00,WeatherDisplay:10.37,2013-08-25 10:02:00,
2013-08-25 05:07:00,74.6,69.4,29.96,WNW,282,0.0,0.0,84,0.00,CLR,,0.00,WeatherDisplay:10.37,2013-08-25 10:07:00,
2013-08-25 05:12:00,74.5,69.3,29.96,WNW,282,0.0,0.0,84,0.00,CLR,,0.00,WeatherDisplay:10.37,2013-08-25 10:12:00,
2013-08-25 05:17:00,74.5,69.3,29.96,WNW,282,0.0,0.0,84,0.00,CLR,,0.00,WeatherDisplay:10.37,2013-08-25 10:17:00,
2013-08-25 05:22:00,74.4,69.6,29.96,WNW,282,0.0,0.0,85,0.00,CLR,,0.00,WeatherDisplay:10.37,2013-08-25 10:22:00,
2013-08-25 05:27:00,74.3,69.5,29.96,WNW,282,0.0,0.0,85,0.00,CLR,,0.00,WeatherDisplay:10.37,2013-08-25 10:27:00,
2013-08-25 05:32:00,74.2,69.4,29.96,WNW,282,0.0,0.0,85,0.00,CLR,,0.00,WeatherDisplay:10.37,2013-08-25 10:32:00,
2013-08-25 05:37:00,74.1,69.3,29.97,WNW,282,0.0,0.0,85,0.00,CLR,,0.00,WeatherDisplay:10.37,2013-08-25 10:37:00,
2013-08-25 05:42:00,74.0,69.2,29.97,WNW,282,0.0,0.0,85,0.00,CLR,,0.00,WeatherDisplay:10.37,2013-08-25 10:42:00,
2013-08-25 05:47:00,74.0,69.2,29.97,WNW,282,0.0,0.0,85,0.00,CLR,,0.00,WeatherDisplay:10.37,2013-08-25 10:47:00,
2013-08-25 05:52:00,73.9,69.1,29.97,WNW,282,0.0,0.0,85,0.00,CLR,,0.00,WeatherDisplay:10.37,2013-08-25 10:52:00,
2013-08-25 05:57:00,73.9,69.4,29.97,WNW,282,0.0,0.0,86,0.00,CLR,,0.00,WeatherDisplay:10.37,2013-08-25 10:57:00,
2013-08-25 06:02:00,73.7,69.2,29.97,WNW,282,0.0,0.0,86,0.00,CLR,,0.00,WeatherDisplay:10.37,2013-08-25 11:02:00,
2013-08-25 06:07:00,73.7,69.2,29.97,WNW,282,0.0,0.0,86,0.00,CLR,,0.00,WeatherDisplay:10.37,2013-08-25 11:07:00,
2013-08-25 06:12:00,73.6,69.2,29.97,WNW,282,0.0,0.0,86,0.00,CLR,,0.00,WeatherDisplay:10.37,2013-08-25 11:12:00,
2013-08-25 06:17:00,73.5,69.1,29.97,WNW,282,0.0,0.0,86,0.00,CLR,,0.00,WeatherDisplay:10.37,2013-08-25 11:17:00,
2013-08-25 06:22:00,73.5,69.1,29.98,WNW,282,0.0,0.0,86,0.00,CLR,,0.00,WeatherDisplay:10.37,2013-08-25 11:22:00,
2013-08-25 06:27:00,73.4,69.0,29.98,WNW,282,0.0,0.0,86,0.00,CLR,,0.00,WeatherDisplay:10.37,2013-08-25 11:27:00,
2013-08-25 06:32:00,73.3,68.9,29.97,WNW,282,0.0,0.0,86,0.00,CLR,,0.00,WeatherDisplay:10.37,2013-08-25 11:32:00,
2013-08-25 06:37:00,73.2,68.8,29.97,WNW,282,0.0,0.0,86,0.00,CLR,,0.00,WeatherDisplay:10.37,2013-08-25 11:37:00,
2013-08-25 06:42:00,73.1,68.7,29.97,WNW,282,0.0,0.0,86,0.00,CLR,,0.00,WeatherDisplay:10.37,2013-08-25 11:42:00,
2013-08-25 06:47:00,73.1,68.7,29.97,WNW,282,0.0,0.0,86,0.00,CLR,,0.00,WeatherDisplay:10.37,2013-08-25 11:47:00,
2013-08-25 06:52:00,73.0,68.6,29.97,WNW,282,0.0,0.0,86,0.00,CLR,,0.00,WeatherDisplay:10.37,2013-08-25 11:52:00,
2013-08-25 06:57:00,73.0,68.6,29.97,WNW,282,0.0,0.0,86,0.00,CLR,,0.00,WeatherDisplay:10.37,2013-08-25 11:57:00,
2013-08-25 07:02:00,72.9,68.5,29.97,WNW,282,0.0,0.0,86,0.00,CLR,,0.00,WeatherDisplay:10.37,2013-08-25 12:02:00,
2013-08-25 07:07:00,72.8,68.7,29.97,WNW,282,0.0,0.0,87,0.00,CLR,,0.00,WeatherDisplay:10.37,2013-08-25 12:07:00,
2013-08-25 07:12:00,72.8,68.7,29.97,WNW,282,0.0,0.0,87,0.00,CLR,,0.00,WeatherDisplay:10.37,2013-08-25 12:12:00,
2013-08-25 07:17:00,72.7,68.6,29.97,WNW,282,0.0,0.0,87,0.00,CLR,,0.00,WeatherDisplay:10.37,2013-08-25 12:17:00,
2013-08-25 07:22:00,72.6,68.5,29.98,WNW,282,0.0,0.0,87,0.00,CLR,,0.00,WeatherDisplay:10.37,2013-08-25 12:22:00,
2013-08-25 07:27:00,72.6,68.5,29.98,WNW,282,0.0,0.0,87,0.00,CLR,,0.00,WeatherDisplay:10.37,2013-08-25 12:27:00,
2013-08-25 07:32:00,72.6,68.8,29.98,WNW,282,0.0,0.0,88,0.00,CLR,,0.00,WeatherDisplay:10.37,2013-08-25 12:32:00,
2013-08-25 07:37:00,72.7,68.9,29.98,WNW,282,0.0,0.0,88,0.00,CLR,,0.00,WeatherDisplay:10.37,2013-08-25 12:37:00,
2013-08-25 07:42:00,72.8,69.0,29.98,WNW,282,0.0,0.0,88,0.00,CLR,,0.00,WeatherDisplay:10.37,2013-08-25 12:42:00,
2013-08-25 07:47:00,72.9,68.8,29.98,WNW,282,0.0,0.0,87,0.00,CLR,,0.00,WeatherDisplay:10.37,2013-08-25 12:47:00,
2013-08-25 07:52:00,73.0,68.9,29.98,WNW,282,0.0,0.0,87,0.00,CLR,,0.00,WeatherDisplay:10.37,2013-08-25 12:52:00,
2013-08-25 07:57:00,73.2,69.1,29.98,WNW,282,0.0,0.0,87,0.00,CLR,,0.00,WeatherDisplay:10.37,2013-08-25 12:57:00,
2013-08-25 08:02:00,73.3,69.2,29.98,WNW,282,0.0,0.0,87,0.00,CLR,,0.00,WeatherDisplay:10.37,2013-08-25 13:02:00,
2013-08-25 08:07:00,73.6,69.2,29.99,WNW,282,0.0,0.0,86,0.00,CLR,,0.00,WeatherDisplay:10.37,2013-08-25 13:07:00,
2013-08-25 08:12:00,73.8,69.3,29.99,WNW,282,0.0,0.0,86,0.00,CLR,,0.00,WeatherDisplay:10.37,2013-08-25 13:12:00,
2013-08-25 08:17:00,74.1,69.6,29.99,WNW,282,0.0,0.0,86,0.00,CLR,,0.00,WeatherDisplay:10.37,2013-08-25 13:17:00,
2013-08-25 08:22:00,74.3,69.5,29.99,WNW,282,0.0,0.0,85,0.00,CLR,,0.00,WeatherDisplay:10.37,2013-08-25 13:22:00,
2013-08-25 08:27:00,74.8,70.0,29.99,WNW,282,0.0,0.0,85,0.00,CLR,,0.00,WeatherDisplay:10.37,2013-08-25 13:27:00,
2013-08-25 08:32:00,75.3,70.1,29.99,WNW,282,0.0,0.0,84,0.00,CLR,,0.00,WeatherDisplay:10.37,2013-08-25 13:32:00,
2013-08-25 08:37:00,75.7,70.2,29.99,WNW,282,0.0,0.0,83,0.00,CLR,,0.00,WeatherDisplay:10.37,2013-08-25 13:37:00,
2013-08-25 08:42:00,76.1,70.6,29.99,WNW,282,0.0,0.0,83,0.00,CLR,,0.00,WeatherDisplay:10.37,2013-08-25 13:42:00,
2013-08-25 08:47:00,76.7,71.1,29.99,WNW,282,0.0,0.0,83,0.00,CLR,,0.00,WeatherDisplay:10.37,2013-08-25 13:47:00,
2013-08-25 08:52:00,77.3,71.4,29.99,WNW,282,0.0,0.0,82,0.00,CLR,,0.00,WeatherDisplay:10.37,2013-08-25 13:52:00,
2013-08-25 08:57:00,78.0,71.7,29.99,WNW,282,0.0,0.0,81,0.00,CLR,,0.00,WeatherDisplay:10.37,2013-08-25 13:57:00,
2013-08-25 09:02:00,79.1,71.6,29.98,East,88,0.3,0.0,78,0.00,CLR,,0.00,WeatherDisplay:10.37,2013-08-25 14:02:00,
2013-08-25 09:07:00,80.0,72.1,29.98,NE,37,0.2,1.2,77,0.00,CLR,,0.00,WeatherDisplay:10.37,2013-08-25 14:07:00,
2013-08-25 09:12:00,80.7,72.4,29.98,NNE,27,0.1,1.2,76,0.00,CLR,,0.00,WeatherDisplay:10.37,2013-08-25 14:12:00,
2013-08-25 09:17:00,81.4,72.7,29.98,NE,50,0.1,1.2,75,0.00,CLR,,0.00,WeatherDisplay:10.37,2013-08-25 14:17:00,
2013-08-25 09:22:00,81.8,72.7,29.98,North,360,0.2,2.3,74,0.00,CLR,,0.00,WeatherDisplay:10.37,2013-08-25 14:22:00,
2013-08-25 09:27:00,82.2,72.7,29.98,NE,40,2.0,4.6,73,0.00,CLR,,0.00,WeatherDisplay:10.37,2013-08-25 14:27:00,
2013-08-25 09:32:00,82.7,73.6,29.98,ENE,59,0.2,1.2,74,0.00,CLR,,0.00,WeatherDisplay:10.37,2013-08-25 14:32:00,
2013-08-25 09:37:00,83.1,73.5,29.98,East,84,0.0,1.2,73,0.00,CLR,,0.00,WeatherDisplay:10.37,2013-08-25 14:37:00,
2013-08-25 09:42:00,83.6,73.2,29.98,North,5,1.3,6.9,71,0.00,CLR,,0.00,WeatherDisplay:10.37,2013-08-25 14:42:00,
2013-08-25 09:47:00,84.0,73.6,29.98,East,81,0.5,2.3,71,0.00,CLR,,0.00,WeatherDisplay:10.37,2013-08-25 14:47:00,
2013-08-25 09:52:00,84.4,73.1,29.98,NNE,26,0.1,1.2,69,0.00,CLR,,0.00,WeatherDisplay:10.37,2013-08-25 14:52:00,
2013-08-25 09:57:00,84.5,73.2,29.99,East,94,1.3,3.5,69,0.00,CLR,,0.00,WeatherDisplay:10.37,2013-08-25 14:57:00,
2013-08-25 10:02:00,84.5,73.2,29.98,NE,40,0.0,1.2,69,0.00,CLR,,0.00,WeatherDisplay:10.37,2013-08-25 15:02:00,
2013-08-25 10:07:00,84.7,73.0,29.99,ENE,57,1.0,2.3,68,0.00,CLR,,0.00,WeatherDisplay:10.37,2013-08-25 15:07:00,
2013-08-25 10:12:00,84.7,73.0,29.99,NE,49,1.4,4.6,68,0.00,CLR,,0.00,WeatherDisplay:10.37,2013-08-25 15:12:00,
2013-08-25 10:17:00,84.7,73.0,29.99,ENE,71,1.2,3.5,68,0.00,CLR,,0.00,WeatherDisplay:10.37,2013-08-25 15:17:00,
2013-08-25 10:22:00,84.8,72.6,29.99,ENE,77,0.5,2.3,67,0.00,CLR,,0.00,WeatherDisplay:10.37,2013-08-25 15:22:00,
2013-08-25 10:27:00,85.4,72.7,29.99,ENE,72,1.6,3.5,66,0.00,CLR,,0.00,WeatherDisplay:10.37,2013-08-25 15:27:00,
2013-08-25 10:32:00,85.5,72.4,29.99,ENE,74,3.4,10.4,65,0.00,CLR,,0.00,WeatherDisplay:10.37,2013-08-25 15:32:00,
2013-08-25 10:37:00,85.1,72.0,29.99,NNE,26,0.2,2.3,65,0.00,CLR,,0.00,WeatherDisplay:10.37,2013-08-25 15:37:00,
2013-08-25 10:42:00,85.0,72.4,29.99,East,93,0.3,1.2,66,0.00,CLR,,0.00,WeatherDisplay:10.37,2013-08-25 15:42:00,
2013-08-25 10:47:00,85.0,72.4,30.00,ESE,109,0.9,5.0,66,0.00,CLR,,0.00,WeatherDisplay:10.37,2013-08-25 15:47:00,
2013-08-25 10:52:00,85.1,72.5,30.00,North,355,1.2,3.5,66,0.00,CLR,,0.00,WeatherDisplay:10.37,2013-08-25 15:52:00,
2013-08-25 10:57:00,85.2,72.1,30.00,NNE,19,1.3,4.6,65,0.00,CLR,,0.00,WeatherDisplay:10.37,2013-08-25 15:57:00,
2013-08-25 11:02:00,85.8,72.2,30.00,East,101,2.7,4.6,64,0.00,CLR,,0.00,WeatherDisplay:10.37,2013-08-25 16:02:00,
2013-08-25 11:07:00,86.6,71.1,30.00,ENE,57,1.5,4.6,60,0.00,CLR,,0.00,WeatherDisplay:10.37,2013-08-25 16:07:00,
2013-08-25 11:12:00,87.3,70.7,30.00,North,355,2.8,6.9,58,0.00,CLR,,0.00,WeatherDisplay:10.37,2013-08-25 16:12:00,
2013-08-25 11:17:00,87.9,71.3,30.00,NE,35,1.6,6.9,58,0.00,CLR,,0.00,WeatherDisplay:10.37,2013-08-25 16:17:00,
2013-08-25 11:22:00,88.4,70.7,30.00,ENE,75,3.8,10.4,56,0.00,CLR,,0.00,WeatherDisplay:10.37,2013-08-25 16:22:00,
2013-08-25 11:27:00,88.7,71.0,30.00,East,90,2.6,5.8,56,0.00,CLR,,0.00,WeatherDisplay:10.37,2013-08-25 16:27:00,
2013-08-25 11:32:00,89.0,70.7,30.00,NE,40,2.1,3.5,55,0.00,CLR,,0.00,WeatherDisplay:10.37,2013-08-25 16:32:00,
2013-08-25 11:37:00,89.4,70.6,29.99,NE,38,1.1,5.8,54,0.00,CLR,,0.00,WeatherDisplay:10.37,2013-08-25 16:37:00,
2013-08-25 11:42:00,89.3,70.5,29.99,NNE,33,3.8,10.4,54,0.00,CLR,,0.00,WeatherDisplay:10.37,2013-08-25 16:42:00,
2013-08-25 11:47:00,89.1,70.8,30.00,East,82,2.5,6.9,55,0.00,CLR,,0.00,WeatherDisplay:10.37,2013-08-25 16:47:00,
2013-08-25 11:52:00,89.0,71.3,29.99,East,97,0.1,1.2,56,0.00,CLR,,0.00,WeatherDisplay:10.37,2013-08-25 16:52:00,
2013-08-25 11:57:00,89.4,70.6,29.99,NNE,26,1.9,5.0,54,0.00,CLR,,0.00,WeatherDisplay:10.37,2013-08-25 16:57:00,
2013-08-25 12:02:00,89.5,70.1,29.99,NNE,32,3.7,8.1,53,0.00,CLR,,0.00,WeatherDisplay:10.37,2013-08-25 17:02:00,
2013-08-25 12:07:00,90.0,69.4,29.99,NE,43,3.8,8.1,51,0.00,CLR,,0.00,WeatherDisplay:10.37,2013-08-25 17:07:00,
2013-08-25 12:12:00,90.4,69.8,29.99,East,97,1.9,5.0,51,0.00,CLR,,0.00,WeatherDisplay:10.37,2013-08-25 17:12:00,
2013-08-25 12:17:00,90.6,68.8,29.99,NE,54,2.7,8.1,49,0.00,CLR,,0.00,WeatherDisplay:10.37,2013-08-25 17:17:00,
2013-08-25 12:22:00,90.8,70.2,29.98,ENE,78,0.8,3.5,51,0.00,CLR,,0.00,WeatherDisplay:10.37,2013-08-25 17:22:00,
2013-08-25 12:27:00,91.0,69.8,29.98,ENE,78,1.1,4.0,50,0.00,CLR,,0.00,WeatherDisplay:10.37,2013-08-25 17:27:00,
2013-08-25 12:32:00,91.2,70.0,29.98,NE,36,2.3,8.1,50,0.00,CLR,,0.00,WeatherDisplay:10.37,2013-08-25 17:32:00,
2013-08-25 12:37:00,91.3,70.1,29.98,NE,43,1.9,4.6,50,0.00,CLR,,0.00,WeatherDisplay:10.37,2013-08-25 17:37:00,
2013-08-25 12:42:00,91.5,70.2,29.98,NNE,24,2.1,4.6,50,0.00,CLR,,0.00,WeatherDisplay:10.37,2013-08-25 17:42:00,
2013-08-25 12:47:00,91.9,70.0,29.98,North,5,1.3,3.5,49,0.00,CLR,,0.00,WeatherDisplay:10.37,2013-08-25 17:47:00,
2013-08-25 12:52:00,92.0,70.1,29.98,NE,56,0.4,5.8,49,0.00,CLR,,0.00,WeatherDisplay:10.37,2013-08-25 17:52:00,
2013-08-25 12:57:00,92.3,69.2,29.97,NE,53,2.8,5.8,47,0.00,CLR,,0.00,WeatherDisplay:10.37,2013-08-25 17:57:00,
2013-08-25 13:02:00,92.6,69.4,29.98,NNE,32,0.3,1.2,47,0.00,CLR,,0.00,WeatherDisplay:10.37,2013-08-25 18:02:00,
2013-08-25 13:07:00,93.1,70.5,29.97,NE,49,1.8,5.8,48,0.00,CLR,,0.00,WeatherDisplay:10.37,2013-08-25 18:07:00,
2013-08-25 13:12:00,93.5,70.2,29.97,East,79,3.5,8.1,47,0.00,CLR,,0.00,WeatherDisplay:10.37,2013-08-25 18:12:00,
2013-08-25 13:17:00,93.7,69.8,29.97,ESE,102,2.2,4.6,46,0.00,CLR,,0.00,WeatherDisplay:10.37,2013-08-25 18:17:00,
2013-08-25 13:22:00,93.8,69.9,29.97,ENE,62,0.6,4.6,46,0.00,CLR,,0.00,WeatherDisplay:10.37,2013-08-25 18:22:00,
2013-08-25 13:27:00,94.2,70.2,29.97,NE,38,2.1,5.8,46,0.00,CLR,,0.00,WeatherDisplay:10.37,2013-08-25 18:27:00,
2013-08-25 13:32:00,94.6,70.6,29.97,ESE,111,2.5,6.0,46,0.00,CLR,,0.00,WeatherDisplay:10.37,2013-08-25 18:32:00,
2013-08-25 13:37:00,94.5,69.9,29.97,NNE,31,1.3,6.0,45,0.00,CLR,,0.00,WeatherDisplay:10.37,2013-08-25 18:37:00,
2013-08-25 13:42:00,93.4,69.5,29.97,East,84,2.1,4.6,46,0.00,CLR,,0.00,WeatherDisplay:10.37,2013-08-25 18:42:00,
2013-08-25 13:47:00,93.2,70.0,29.97,East,87,0.4,2.3,47,0.00,CLR,,0.00,WeatherDisplay:10.37,2013-08-25 18:47:00,
2013-08-25 13:52:00,93.3,69.4,29.97,ENE,63,1.8,6.9,46,0.00,CLR,,0.00,WeatherDisplay:10.37,2013-08-25 18:52:00,
2013-08-25 13:57:00,92.6,69.4,29.97,NE,55,1.0,3.5,47,0.00,CLR,,0.00,WeatherDisplay:10.37,2013-08-25 18:57:00,
2013-08-25 14:02:00,92.2,69.1,29.97,SE,127,1.0,3.5,47,0.00,CLR,,0.00,WeatherDisplay:10.37,2013-08-25 19:02:00,
2013-08-25 14:07:00,92.7,68.9,29.96,ENE,77,1.8,7.0,46,0.00,CLR,,0.00,WeatherDisplay:10.37,2013-08-25 19:07:00,
2013-08-25 14:12:00,92.6,68.8,29.96,ESE,123,0.2,1.2,46,0.00,CLR,,0.00,WeatherDisplay:10.37,2013-08-25 19:12:00,
2013-08-25 14:17:00,93.1,68.6,29.96,SSE,147,0.5,2.3,45,0.00,CLR,,0.00,WeatherDisplay:10.37,2013-08-25 19:17:00,
2013-08-25 14:22:00,94.1,68.9,29.96,ESE,113,1.4,5.8,44,0.00,CLR,,0.00,WeatherDisplay:10.37,2013-08-25 19:22:00,
2013-08-25 14:27:00,94.5,68.5,29.96,NW,321,0.7,3.5,43,0.00,CLR,,0.00,WeatherDisplay:10.37,2013-08-25 19:27:00,
2013-08-25 14:32:00,94.4,67.8,29.95,ENE,61,0.2,1.2,42,0.00,CLR,,0.00,WeatherDisplay:10.37,2013-08-25 19:32:00,
2013-08-25 14:37:00,94.2,68.3,29.95,ENE,67,0.1,1.2,43,0.00,CLR,,0.00,WeatherDisplay:10.37,2013-08-25 19:37:00,
2013-08-25 14:42:00,94.3,67.7,29.95,ENE,67,1.6,4.6,42,0.00,CLR,,0.00,WeatherDisplay:10.37,2013-08-25 19:42:00,
2013-08-25 14:47:00,94.2,68.3,29.95,ENE,69,2.8,8.1,43,0.00,CLR,,0.00,WeatherDisplay:10.37,2013-08-25 19:47:00,
2013-08-25 14:52:00,94.4,67.8,29.95,East,93,0.6,6.9,42,0.00,CLR,,0.00,WeatherDisplay:10.37,2013-08-25 19:52:00,
2013-08-25 14:57:00,94.0,67.4,29.94,ENE,63,0.7,3.5,42,0.00,CLR,,0.00,WeatherDisplay:10.37,2013-08-25 19:57:00,
2013-08-25 15:02:00,94.3,68.4,29.94,East,92,1.3,4.0,43,0.00,CLR,,0.00,WeatherDisplay:10.37,2013-08-25 20:02:00,
2013-08-25 15:07:00,94.4,67.8,29.94,NE,46,0.1,1.2,42,0.00,CLR,,0.00,WeatherDisplay:10.37,2013-08-25 20:07:00,
2013-08-25 15:12:00,94.6,68.6,29.93,NE,42,1.2,6.9,43,0.00,CLR,,0.00,WeatherDisplay:10.37,2013-08-25 20:12:00,
2013-08-25 15:17:00,94.9,68.2,29.94,ENE,64,1.0,3.5,42,0.00,CLR,,0.00,WeatherDisplay:10.37,2013-08-25 20:17:00,
2013-08-25 15:22:00,95.1,68.4,29.93,NNE,13,0.3,3.5,42,0.00,CLR,,0.00,WeatherDisplay:10.37,2013-08-25 20:22:00,
2013-08-25 15:27:00,95.2,69.2,29.93,SSW,195,0.2,1.2,43,0.00,CLR,,0.00,WeatherDisplay:10.37,2013-08-25 20:27:00,
2013-08-25 15:32:00,95.2,67.8,29.93,NE,53,0.0,1.2,41,0.00,CLR,,0.00,WeatherDisplay:10.37,2013-08-25 20:32:00,
2013-08-25 15:37:00,95.8,67.6,29.92,ENE,64,1.7,6.9,40,0.00,CLR,,0.00,WeatherDisplay:10.37,2013-08-25 20:37:00,
2013-08-25 15:42:00,95.9,67.7,29.92,NNE,24,1.2,3.0,40,0.00,CLR,,0.00,WeatherDisplay:10.37,2013-08-25 20:42:00,
2013-08-25 15:47:00,96.2,68.0,29.92,West,265,1.4,3.5,40,0.00,CLR,,0.00,WeatherDisplay:10.37,2013-08-25 20:47:00,
2013-08-25 15:52:00,96.4,68.1,29.92,NE,51,0.4,4.6,40,0.00,CLR,,0.00,WeatherDisplay:10.37,2013-08-25 20:52:00,
2013-08-25 15:57:00,96.5,67.5,29.92,ENE,57,3.0,4.6,39,0.00,CLR,,0.00,WeatherDisplay:10.37,2013-08-25 20:57:00,
2013-08-25 16:02:00,96.6,67.6,29.92,East,84,1.8,5.8,39,0.00,CLR,,0.00,WeatherDisplay:10.37,2013-08-25 21:02:00,
2013-08-25 16:07:00,96.1,67.9,29.92,NE,44,0.1,1.2,40,0.00,CLR,,0.00,WeatherDisplay:10.37,2013-08-25 21:07:00,
2013-08-25 16:12:00,95.9,68.4,29.91,ESE,104,2.1,4.0,41,0.00,CLR,,0.00,WeatherDisplay:10.37,2013-08-25 21:12:00,
2013-08-25 16:17:00,96.1,68.6,29.91,NE,42,1.7,5.8,41,0.00,CLR,,0.00,WeatherDisplay:10.37,2013-08-25 21:17:00,
2013-08-25 16:22:00,95.8,68.3,29.91,North,5,0.8,5.8,41,0.00,CLR,,0.00,WeatherDisplay:10.37,2013-08-25 21:22:00,
2013-08-25 16:27:00,95.5,68.1,29.91,ENE,61,1.0,3.5,41,0.00,CLR,,0.00,WeatherDisplay:10.37,2013-08-25 21:27:00,
2013-08-25 16:32:00,95.5,68.1,29.91,NNE,31,1.1,3.5,41,0.00,CLR,,0.00,WeatherDisplay:10.37,2013-08-25 21:32:00,
2013-08-25 16:37:00,95.9,67.7,29.91,ENE,78,1.6,3.5,40,0.00,CLR,,0.00,WeatherDisplay:10.37,2013-08-25 21:37:00,
2013-08-25 16:42:00,96.0,69.2,29.91,NNE,30,2.9,10.4,42,0.00,CLR,,0.00,WeatherDisplay:10.37,2013-08-25 21:42:00,
2013-08-25 16:47:00,95.8,69.7,29.91,North,5,1.0,3.5,43,0.00,CLR,,0.00,WeatherDisplay:10.37,2013-08-25 21:47:00,
2013-08-25 16:52:00,95.4,69.4,29.91,NE,46,1.7,4.0,43,0.00,CLR,,0.00,WeatherDisplay:10.37,2013-08-25 21:52:00,
2013-08-25 16:57:00,94.7,69.4,29.91,ENE,66,1.4,4.6,44,0.00,CLR,,0.00,WeatherDisplay:10.37,2013-08-25 21:57:00,
2013-08-25 17:02:00,94.7,68.7,29.90,ENE,59,0.5,5.0,43,0.00,CLR,,0.00,WeatherDisplay:10.37,2013-08-25 22:02:00,
2013-08-25 17:07:00,94.9,68.9,29.90,East,92,1.3,3.5,43,0.00,CLR,,0.00,WeatherDisplay:10.37,2013-08-25 22:07:00,
2013-08-25 17:12:00,95.0,68.3,29.91,NNE,25,2.1,6.9,42,0.00,CLR,,0.00,WeatherDisplay:10.37,2013-08-25 22:12:00,
2013-08-25 17:17:00,95.0,67.6,29.90,East,95,1.5,3.5,41,0.00,CLR,,0.00,WeatherDisplay:10.37,2013-08-25 22:17:00,
2013-08-25 17:22:00,95.2,67.8,29.90,NE,42,0.3,2.3,41,0.00,CLR,,0.00,WeatherDisplay:10.37,2013-08-25 22:22:00,
2013-08-25 17:27:00,95.5,67.3,29.90,East,94,0.7,2.3,40,0.00,CLR,,0.00,WeatherDisplay:10.37,2013-08-25 22:27:00,
2013-08-25 17:32:00,95.8,67.6,29.90,NE,39,0.2,1.2,40,0.00,CLR,,0.00,WeatherDisplay:10.37,2013-08-25 22:32:00,
2013-08-25 17:37:00,96.2,68.0,29.90,NNE,32,0.4,2.3,40,0.00,CLR,,0.00,WeatherDisplay:10.37,2013-08-25 22:37:00,
2013-08-25 17:42:00,96.2,68.0,29.90,East,88,1.1,2.3,40,0.00,CLR,,0.00,WeatherDisplay:10.37,2013-08-25 22:42:00,
2013-08-25 17:47:00,96.0,68.5,29.90,NNE,30,0.7,11.5,41,0.00,CLR,,0.00,WeatherDisplay:10.37,2013-08-25 22:47:00,
2013-08-25 17:52:00,95.8,69.0,29.90,ENE,73,0.1,6.9,42,0.00,CLR,,0.00,WeatherDisplay:10.37,2013-08-25 22:52:00,
2013-08-25 17:57:00,95.3,69.3,29.90,East,84,1.5,6.9,43,0.00,CLR,,0.00,WeatherDisplay:10.37,2013-08-25 22:57:00,
2013-08-25 18:02:00,94.4,69.1,29.90,East,94,1.4,4.6,44,0.00,CLR,,0.00,WeatherDisplay:10.37,2013-08-25 23:02:00,
2013-08-25 18:07:00,94.0,68.8,29.90,NNE,23,2.2,5.8,44,0.00,CLR,,0.00,WeatherDisplay:10.37,2013-08-25 23:07:00,
2013-08-25 18:12:00,93.7,69.8,29.90,East,99,2.8,5.0,46,0.00,CLR,,0.00,WeatherDisplay:10.37,2013-08-25 23:12:00,
2013-08-25 18:17:00,93.4,70.2,29.90,ENE,62,0.3,4.6,47,0.00,CLR,,0.00,WeatherDisplay:10.37,2013-08-25 23:17:00,
2013-08-25 18:22:00,93.1,69.3,29.90,ESE,105,0.1,4.6,46,0.00,CLR,,0.00,WeatherDisplay:10.37,2013-08-25 23:22:00,
2013-08-25 18:27:00,92.9,69.7,29.91,ENE,65,0.4,2.0,47,0.00,CLR,,0.00,WeatherDisplay:10.37,2013-08-25 23:27:00,
2013-08-25 18:32:00,92.7,69.5,29.90,ENE,67,1.5,5.8,47,0.00,CLR,,0.00,WeatherDisplay:10.37,2013-08-25 23:32:00,
2013-08-25 18:37:00,92.7,70.7,29.91,NE,38,1.4,6.9,49,0.00,CLR,,0.00,WeatherDisplay:10.37,2013-08-25 23:37:00,
2013-08-25 18:42:00,92.5,70.6,29.91,NE,48,0.8,3.5,49,0.00,CLR,,0.00,WeatherDisplay:10.37,2013-08-25 23:42:00,
2013-08-25 18:47:00,92.3,69.8,29.91,NE,55,0.0,1.2,48,0.00,CLR,,0.00,WeatherDisplay:10.37,2013-08-25 23:47:00,
2013-08-25 18:52:00,91.9,70.0,29.91,NNE,24,0.9,3.5,49,0.00,CLR,,0.00,WeatherDisplay:10.37,2013-08-25 23:52:00,
2013-08-25 18:57:00,91.3,70.1,29.91,East,94,0.1,0.0,50,0.00,CLR,,0.00,WeatherDisplay:10.37,2013-08-25 23:57:00,
2013-08-25 19:02:00,91.0,70.4,29.91,ENE,59,0.6,3.5,51,0.00,CLR,,0.00,WeatherDisplay:10.37,2013-08-26 00:02:00,
2013-08-25 19:07:00,90.9,70.8,29.92,NNE,23,2.3,5.8,52,0.00,CLR,,0.00,WeatherDisplay:10.37,2013-08-26 00:07:00,
2013-08-25 19:12:00,90.6,70.6,29.92,North,355,2.2,6.9,52,0.00,CLR,,0.00,WeatherDisplay:10.37,2013-08-26 00:12:00,
2013-08-25 19:17:00,90.2,70.2,29.92,SSE,151,1.5,3.5,52,0.00,CLR,,0.00,WeatherDisplay:10.37,2013-08-26 00:17:00,
2013-08-25 19:22:00,89.8,69.8,29.92,ENE,72,1.3,8.1,52,0.00,CLR,,0.00,WeatherDisplay:10.37,2013-08-26 00:22:00,
2013-08-25 19:27:00,89.5,70.1,29.93,SE,132,1.9,6.9,53,0.00,CLR,,0.00,WeatherDisplay:10.37,2013-08-26 00:27:00,
2013-08-25 19:32:00,89.2,70.4,29.93,East,84,0.3,3.5,54,0.00,CLR,,0.00,WeatherDisplay:10.37,2013-08-26 00:32:00,
2013-08-25 19:37:00,89.0,70.2,29.93,ENE,63,0.7,3.5,54,0.00,CLR,,0.00,WeatherDisplay:10.37,2013-08-26 00:37:00,
2013-08-25 19:42:00,88.8,70.0,29.93,ENE,73,1.0,2.3,54,0.00,CLR,,0.00,WeatherDisplay:10.37,2013-08-26 00:42:00,
2013-08-25 19:47:00,88.7,69.9,29.93,East,80,1.4,4.6,54,0.00,CLR,,0.00,WeatherDisplay:10.37,2013-08-26 00:47:00,
2013-08-25 19:52:00,88.6,69.8,29.93,NE,42,0.4,4.0,54,0.00,CLR,,0.00,WeatherDisplay:10.37,2013-08-26 00:52:00,
2013-08-25 19:57:00,88.5,70.3,29.93,NNE,28,0.2,1.2,55,0.00,CLR,,0.00,WeatherDisplay:10.37,2013-08-26 00:57:00,
2013-08-25 20:02:00,88.4,70.2,29.94,SSE,164,3.0,4.6,55,0.00,CLR,,0.00,WeatherDisplay:10.37,2013-08-26 01:02:00,
2013-08-25 20:07:00,88.1,70.4,29.94,East,86,1.7,5.8,56,0.00,CLR,,0.00,WeatherDisplay:10.37,2013-08-26 01:07:00,
2013-08-25 20:12:00,87.9,70.2,29.94,NNE,26,0.3,2.3,56,0.00,CLR,,0.00,WeatherDisplay:10.37,2013-08-26 01:12:00,
2013-08-25 20:17:00,87.7,70.1,29.94,SE,128,0.2,2.3,56,0.00,CLR,,0.00,WeatherDisplay:10.37,2013-08-26 01:17:00,
2013-08-25 20:22:00,87.4,69.3,29.94,SE,131,2.3,4.6,55,0.00,CLR,,0.00,WeatherDisplay:10.37,2013-08-26 01:22:00,
2013-08-25 20:27:00,87.1,69.5,29.94,SSW,209,1.6,6.9,56,0.00,CLR,,0.00,WeatherDisplay:10.37,2013-08-26 01:27:00,
2013-08-25 20:32:00,86.8,69.2,29.94,NNW,342,0.7,2.3,56,0.00,CLR,,0.00,WeatherDisplay:10.37,2013-08-26 01:32:00,
2013-08-25 20:37:00,86.7,69.6,29.95,NNE,14,0.3,1.2,57,0.00,CLR,,0.00,WeatherDisplay:10.37,2013-08-26 01:37:00,
2013-08-25 20:42:00,86.4,69.4,29.95,ESE,107,2.4,5.8,57,0.00,CLR,,0.00,WeatherDisplay:10.37,2013-08-26 01:42:00,
2013-08-25 20:47:00,86.2,69.7,29.95,ENE,78,0.1,1.2,58,0.00,CLR,,0.00,WeatherDisplay:10.37,2013-08-26 01:47:00,
2013-08-25 20:52:00,86.0,70.0,29.96,SSE,162,0.1,1.2,59,0.00,CLR,,0.00,WeatherDisplay:10.37,2013-08-26 01:52:00,
2013-08-25 20:57:00,85.9,69.9,29.96,East,84,0.3,3.5,59,0.00,CLR,,0.00,WeatherDisplay:10.37,2013-08-26 01:57:00,
2013-08-25 21:02:00,85.7,69.7,29.96,ENE,61,0.1,1.2,59,0.00,CLR,,0.00,WeatherDisplay:10.37,2013-08-26 02:02:00,
2013-08-25 21:07:00,85.6,70.1,29.96,NE,51,0.3,1.0,60,0.00,CLR,,0.00,WeatherDisplay:10.37,2013-08-26 02:07:00,
2013-08-25 21:12:00,85.5,70.0,29.96,NE,56,0.0,0.0,60,0.00,CLR,,0.00,WeatherDisplay:10.37,2013-08-26 02:12:00,
2013-08-25 21:17:00,85.4,69.9,29.97,East,91,0.0,2.3,60,0.00,CLR,,0.00,WeatherDisplay:10.37,2013-08-26 02:17:00,
2013-08-25 21:22:00,85.2,70.2,29.97,NE,44,0.5,3.5,61,0.00,CLR,,0.00,WeatherDisplay:10.37,2013-08-26 02:22:00,
2013-08-25 21:27:00,85.0,70.0,29.97,ESE,107,0.0,0.0,61,0.00,CLR,,0.00,WeatherDisplay:10.37,2013-08-26 02:27:00,
2013-08-25 21:32:00,84.9,70.4,29.97,NE,41,0.0,1.2,62,0.00,CLR,,0.00,WeatherDisplay:10.37,2013-08-26 02:32:00,
2013-08-25 21:37:00,84.8,70.3,29.97,NE,41,0.0,0.0,62,0.00,CLR,,0.00,WeatherDisplay:10.37,2013-08-26 02:37:00,
2013-08-25 21:42:00,84.6,70.1,29.97,South,186,0.0,0.0,62,0.00,CLR,,0.00,WeatherDisplay:10.37,2013-08-26 02:42:00,
2013-08-25 21:47:00,84.5,70.5,29.98,NE,36,0.0,0.0,63,0.00,CLR,,0.00,WeatherDisplay:10.37,2013-08-26 02:47:00,
2013-08-25 21:52:00,84.4,70.4,29.98,ENE,67,0.1,1.2,63,0.00,CLR,,0.00,WeatherDisplay:10.37,2013-08-26 02:52:00,
2013-08-25 21:57:00,84.2,70.7,29.98,ESE,106,0.2,2.0,64,0.00,CLR,,0.00,WeatherDisplay:10.37,2013-08-26 02:57:00,
2013-08-25 22:02:00,84.0,70.5,29.98,ENE,67,0.2,2.3,64,0.00,CLR,,0.00,WeatherDisplay:10.37,2013-08-26 03:02:00,
2013-08-25 22:07:00,83.9,70.9,29.99,ENE,58,0.1,1.0,65,0.00,CLR,,0.00,WeatherDisplay:10.37,2013-08-26 03:07:00,
2013-08-25 22:12:00,83.8,70.8,29.99,ENE,60,0.0,1.2,65,0.00,CLR,,0.00,WeatherDisplay:10.37,2013-08-26 03:12:00,
2013-08-25 22:17:00,83.8,70.8,29.99,East,98,0.0,0.0,65,0.00,CLR,,0.00,WeatherDisplay:10.37,2013-08-26 03:17:00,
2013-08-25 22:22:00,83.7,70.7,29.99,NE,40,0.0,0.0,65,0.00,CLR,,0.00,WeatherDisplay:10.37,2013-08-26 03:22:00,
2013-08-25 22:27:00,83.6,71.0,29.99,NE,42,0.0,1.2,66,0.00,CLR,,0.00,WeatherDisplay:10.37,2013-08-26 03:27:00,
2013-08-25 22:32:00,83.6,71.0,29.99,ENE,71,0.1,4.6,66,0.00,CLR,,0.00,WeatherDisplay:10.37,2013-08-26 03:32:00,
2013-08-25 22:37:00,83.6,71.0,29.99,NNE,26,0.5,2.3,66,0.00,CLR,,0.00,WeatherDisplay:10.37,2013-08-26 03:37:00,
2013-08-25 22:42:00,83.6,71.0,29.99,NE,43,0.1,1.2,66,0.00,CLR,,0.00,WeatherDisplay:10.37,2013-08-26 03:42:00,
2013-08-25 22:47:00,83.4,71.3,29.99,East,86,0.4,2.3,67,0.00,CLR,,0.00,WeatherDisplay:10.37,2013-08-26 03:47:00,
2013-08-25 22:52:00,83.3,71.2,29.99,NE,39,0.0,1.2,67,0.00,CLR,,0.00,WeatherDisplay:10.37,2013-08-26 03:52:00,
2013-08-25 22:57:00,83.3,71.2,29.99,NE,39,0.0,0.0,67,0.00,CLR,,0.00,WeatherDisplay:10.37,2013-08-26 03:57:00,
2013-08-25 23:01:00,83.2,71.1,29.99,NE,54,0.0,0.0,67,0.00,CLR,,0.00,WeatherDisplay:10.37,2013-08-26 04:01:00,
2013-08-25 23:06:00,83.0,71.3,29.99,NE,49,0.4,3.5,68,0.00,CLR,,0.00,WeatherDisplay:10.37,2013-08-26 04:06:00,
2013-08-25 23:11:00,82.8,71.2,29.99,NE,56,0.0,1.2,68,0.00,CLR,,0.00,WeatherDisplay:10.37,2013-08-26 04:11:00,
2013-08-25 23:16:00,82.7,71.5,29.99,NE,56,0.0,0.0,69,0.00,CLR,,0.00,WeatherDisplay:10.37,2013-08-26 04:16:00,
2013-08-25 23:21:00,82.5,71.3,29.99,NE,55,0.0,1.2,69,0.00,CLR,,0.00,WeatherDisplay:10.37,2013-08-26 04:21:00,
2013-08-25 23:26:00,82.3,71.5,29.99,NE,43,0.0,0.0,70,0.00,CLR,,0.00,WeatherDisplay:10.37,2013-08-26 04:26:00,
2013-08-25 23:31:00,82.1,71.3,29.99,SE,125,0.1,1.2,70,0.00,CLR,,0.00,WeatherDisplay:10.37,2013-08-26 04:31:00,
2013-08-25 23:36:00,81.9,71.2,29.99,ESE,108,0.0,0.0,70,0.00,CLR,,0.00,WeatherDisplay:10.37,2013-08-26 04:36:00,
2013-08-25 23:41:00,81.7,71.4,29.99,East,81,0.1,1.2,71,0.00,CLR,,0.00,WeatherDisplay:10.37,2013-08-26 04:41:00,
2013-08-25 23:46:00,81.6,71.3,29.99,ENE,57,0.7,3.5,71,0.00,CLR,,0.00,WeatherDisplay:10.37,2013-08-26 04:46:00,
2013-08-25 23:51:00,81.4,71.1,29.99,ENE,58,0.5,3.5,71,0.00,CLR,,0.00,WeatherDisplay:10.37,2013-08-26 04:51:00,
2013-08-25 23:56:00,81.2,71.3,29.99,ENE,58,0.0,0.0,72,0.00,CLR,,0.00,WeatherDisplay:10.37,2013-08-26 04:56:00,